Location: Waco, TX
(31.5480°N, 97.1670°W)
Time: 22:24:54
(UTC-05:00)

ISS - Pass Details

Date: 20 May 2018
Orbit: 402 x 407 km, 51.6° (Epoch: 25 May)

Event Time Altitude Azimuth Distance (km) Brightness Sun altitude
Rises 05:35:58 0° 322° (NW) 2,313 -0.1 -10.9°
Reaches altitude 10° 05:38:08 10° 330° (NNW) 1,452 -1.0 -10.5°
Maximum altitude 05:41:13 40° 41° (NE) 605 -2.3 -9.9°
Drops below altitude 10° 05:44:19 10° 113° (ESE) 1,447 -0.5 -9.3°
Sets 05:46:27 0° 121° (ESE) 2,304 0.4 -8.9°
